Flag for Germany Weather past 2 weeks in Kaiserslautern, Rhineland-Palatinate, Germany

Now
61 °F

Passing clouds.


Feels Like: 61 °F
Forecast: 44 / 72 °F
Wind: 9 mph from Northeast

Location: Ramstein


UV Index: 3 (Moderate)

Visibility: N/A


Pressure: 30.09 "Hg

Humidity: 63%

Dew point: 48 °F

Location of KaiserslauternLocation

Historic Weather in Kaiserslautern

°F

Kaiserslautern temperature yesterday

Maximum temperature yesterday: 71 °F (at 4:58 PM)
Minimum temperature yesterday: 39 °F (at 4:58 AM)
Average temperature yesterday: 56 °F

Past Weeks' High & Low Weather Summary

 TemperatureHumidityPressure
High71 °F (Apr 23, 4:58 PM)100% (Apr 10, 6:58 AM)30.43 "Hg (Apr 10, 6:58 AM)
Low26 °F (Apr 16, 6:58 AM)23% (Apr 17, 6:58 PM)29.62 "Hg (Apr 21, 12:58 PM)
Average50 °F67%30.04 "Hg
* Reported Apr 9 7:58 AM — Apr 24 7:58 AM, Kaiserslautern, Weather by CustomWeather, © 2014

Note: Actual official high and low records may vary slightly from our data, if they occured in-between our weather recording intervals... More about our weather records

Advertising

Historic Weather Conditions — Data for Previous 24 hours

 ConditionsComfort  
Time TempWeatherWind HumidityBarometerVisibility
7:58 AM
Apr 24
54 °FSunny.3 mph94%30.09 "HgN/A
6:58 AM51 °FFog.No wind99%30.10 "Hg6 mi
5:58 AM51 °FPassing clouds.No wind99%30.09 "HgN/A
4:58 AM52 °FPassing clouds.6 mph100%30.09 "HgN/A
3:58 AM52 °FPassing clouds.1 mph100%30.09 "HgN/A
2:58 AM52 °FPassing clouds.No wind100%30.09 "HgN/A
1:58 AM52 °FOvercast.No wind94%30.10 "HgN/A
12:58 AM54 °FOvercast.No wind94%30.11 "HgN/A
11:58 PM
Apr 23
53 °FOvercast.No wind90%30.11 "HgN/A
10:58 PM52 °FOvercast.No wind94%30.11 "HgN/A
9:58 PM55 °FClear.3 mph89%30.11 "HgN/A
8:58 PM57 °FBroken clouds.3 mph82%30.11 "HgN/A
8:02 PM59 °FScattered clouds.5 mph77%30.08 "HgN/A
7:58 PM59 °FLight rain. Scattered clouds.7 mph77%30.09 "HgN/A
6:58 PM65 °FBroken clouds.7 mph51%30.07 "HgN/A
6:03 PM66 °FLight rain. Passing clouds.10 mph49%30.06 "HgN/A
5:58 PM67 °FScattered clouds.10 mph46%30.06 "HgN/A
4:58 PM71 °FPassing clouds.No wind35%30.06 "HgN/A
3:58 PM70 °FScattered clouds.9 mph38%30.06 "HgN/A
2:58 PM69 °FPassing clouds.6 mph40%30.08 "HgN/A
1:58 PM68 °FLight rain. Scattered clouds.6 mph43%30.09 "HgN/A
12:58 PM66 °FLight rain. Passing clouds.1 mph46%30.10 "HgN/A
11:58 AM67 °FSunny.No wind50%30.09 "HgN/A
10:59 AM63 °FSunny.2 mph59%30.10 "HgN/A
10:58 AM63 °FLight rain. Sunny.2 mph59%30.11 "HgN/A
9:58 AM57 °FSunny.No wind67%30.12 "HgN/A
Weather by CustomWeather, © 2014

See weather overview